Simultaneous Nadir Overpasses (SNOs) Predictions

Prediction of SNOs between AURA and NPP Satellite Orbit:

Table of predicted SNOs for the next 14.0 days since TLE Epoch: 1/25/2019
Index Date (AURA) Time (AURA) Lat,Lon (AURA) SZA (AURA ) Date (NPP) Time (NPP) Lat,Lon (NPP) SZA (NPP ) Distance(km) Time Diff (sec)
1 01/28/2019 02:52:06 79.47, 33.72 110.98 01/28/2019 02:51:03 79.47, 33.67 111.04 1.12 63
2 01/28/2019 03:41:26 -79.74,-156.71 69.43 01/28/2019 03:41:40 -79.74,-156.68 69.44 0.42 14
3 01/30/2019 19:08:32 79.57, 150.28 110.15 01/30/2019 19:07:53 79.58, 150.31 110.18 0.75 39
4 01/30/2019 19:57:52 -79.84, -40.09 70.26 01/30/2019 19:58:30 -79.84, -39.99 70.31 1.93 38
5 02/02/2019 11:24:58 79.70, -92.90 109.23 02/02/2019 11:24:43 79.71, -92.76 109.22 2.93 15
6 02/02/2019 12:14:22 -79.82, 75.67 70.97 02/02/2019 12:15:25 -79.82, 75.54 70.99 2.57 63
7 02/05/2019 02:52:07 -79.51,-146.07 71.24 02/05/2019 02:50:59 -79.51,-146.03 71.20 0.69 68
8 02/05/2019 03:41:27 79.71, 23.09 108.45 02/05/2019 03:41:37 79.71, 23.04 108.45 0.89 10
9 02/07/2019 19:08:36 -79.52, -30.09 72.06 02/07/2019 19:07:53 -79.51, -30.24 72.00 3.07 43




NCC Satellite Simultaneous Nadir Overpasses (SNOs) Prediction Service
